This is the latest recevied weather packets stored in our database for station/object N5ZP. If no packets are shown the sender has not sent any weather packets the latest 10 day(s).
| Time | Temp. | Humidity | Pressure | Rain* | Wind** | Luminosity | Snow |
|---|---|---|---|---|---|---|---|
| 1778089251 | 13.89° C | 76% | 1012.4 hPa | 0 mm | - | 355 W/m² | - |
| 1778088949 | 13.89° C | 75% | 1012.3 hPa | 0 mm | - | 264 W/m² | - |
| 1778088646 | 13.33° C | 77% | 1011.9 hPa | 0 mm | - | 410 W/m² | - |
| 1778088343 | 13.33° C | 78% | 1011.8 hPa | 0 mm | - | 273 W/m² | - |
| 1778088040 | 13.33° C | 81% | 1011.8 hPa | 0 mm | - | 300 W/m² | - |
| 1778087738 | 12.78° C | 81% | 1011.7 hPa | 0 mm | - | 272 W/m² | - |
| 1778087435 | 12.78° C | 83% | 1012.2 hPa | 0 mm | - | 153 W/m² | - |
| 1778087132 | 12.78° C | 83% | 1011.9 hPa | 0 mm | - | 186 W/m² | - |
| 1778086830 | 12.22° C | 84% | 1012 hPa | 0 mm | - | 159 W/m² | - |
| 1778086528 | 12.22° C | 86% | 1012.2 hPa | 0 mm | - | 118 W/m² | - |
| 1778086223 | 12.22° C | 85% | 1012.5 hPa | 0 mm | - | 118 W/m² | - |
| 1778085920 | 12.22° C | 84% | 1012.3 hPa | 0 mm | - | 119 W/m² | - |
| 1778085618 | 12.22° C | 85% | 1012.1 hPa | 0 mm | - | 94 W/m² | - |
| 1778085314 | 12.22° C | 86% | 1012 hPa | 0 mm | - | 102 W/m² | - |
| 1778085010 | 11.67° C | 85% | 1012 hPa | 0 mm | - | 98 W/m² | - |
| 1778084706 | 11.67° C | 86% | 1012 hPa | 0 mm | - | 118 W/m² | - |
| 1778084403 | 11.67° C | 86% | 1011.9 hPa | 0 mm | - | 101 W/m² | - |
| 1778084101 | 11.67° C | 87% | 1011.7 hPa | 0 mm | - | 97 W/m² | - |
| 1778083798 | 11.67° C | 87% | 1011.8 hPa | 0 mm | - | 108 W/m² | - |
| 1778083495 | 11.67° C | 87% | 1011.6 hPa | 0 mm | - | 127 W/m² | - |
| 1778083192 | 11.67° C | 88% | 1011.7 hPa | 0 mm | - | 137 W/m² | - |
| 1778082890 | 11.67° C | 88% | 1011.7 hPa | 0 mm | - | 145 W/m² | - |
| 1778081776 | 11.11° C | 91% | 1012.2 hPa | 0 mm | - | 147 W/m² | - |
| 1778081474 | 11.67° C | 91% | 1012.3 hPa | 0 mm | - | 89 W/m² | - |
| 1778081171 | 11.67° C | 92% | 1012 hPa | 0 mm | - | 138 W/m² | - |
* Rain latest hour (hover to see other rain measurements)
** Current wind speed in m/s (hover to see current wind gust speed)